Regional Weather Roundup
Issued by NWS Wilmington, NC

Home | Current Version | Previous Version | Text Only | Print | Product List | Glossary On
Versions: 1 2 3 4 5 6 7 8 9 10 11 12 13 14 15 16 17 18 19 20 21 22 23 24 25 26 27
000
ASUS42 KILM 210613
RWRILM
RWRILM
REGIONAL HOURLY WEATHER ROUNDUP
NATIONAL WEATHER SERVICE WILMINGTON NC
200 AM EDT THU SEP 21 2017

NOTE: "FAIR" INDICATES FEW OR NO CLOUDS BELOW 12,000 FEET WITH NO
SIGNIFICANT WEATHER AND/OR OBSTRUCTIONS TO VISIBILITY.

...............WFO WILMINGTON COUNTY WARNING AREA...............

......COASTAL NC AND SC COUNTIES......

CITY           SKY/WX    TMP DP  RH WIND       PRES   REMARKS
WILMINGTON     CLEAR     75  72  90 SW3       30.00S
N MYRTLE BEACH CLEAR     75  73  93 W5        30.00S
MYRTLE BEACH   CLEAR     75  73  93 W7        30.02S

......INLAND NC AND SC COUNTIES.......

CITY           SKY/WX    TMP DP  RH WIND       PRES   REMARKS
LUMBERTON      CLEAR     67  65  93 CALM      29.99F
ELIZABETHTOWN  NOT AVBL
WHITEVILLE     CLEAR     74  71  89 SW3       30.00F
FLORENCE       CLEAR     70  69  97 CALM      30.02S
DARLINGTON     CLEAR     70  68  93 CALM      30.02S
KINGSTREE      FAIR      70  68  94 CALM      30.01F
HARTSVILLE     FAIR      68  64  88 CALM      30.02S
BENNETTSVILLE  FAIR      70  70 100 CALM      30.01S
CONWAY         FAIR      70  70 100 CALM      30.01S FOG
GEORGETOWN     FAIR      72  72 100 CALM      30.02S
MARION         FAIR      72  70  94 CALM      30.02S

....................REST OF NORTH CAROLINA......................

.........EASTERN NC.........

CITY           SKY/WX    TMP DP  RH WIND       PRES   REMARKS
CAPE HATTERAS  CLEAR     75  74  96 W3        29.98S
JACKSONVILLE   CLEAR     69  68  96 CALM      30.00S
MOREHEAD CITY  CLEAR     76  75  97 W5        29.99S
KENANSVILLE    PTCLDY    68  64  88 SW3       30.01R
NEW BERN       PTCLDY    72  72 100 CALM      30.00S FOG
ELIZABETH CITY PTCLDY    67  67 100 CALM      29.98S

.........CENTRAL NC.........

CITY           SKY/WX    TMP DP  RH WIND       PRES   REMARKS
RALEIGH DURHAM PTCLDY    69  68  96 CALM      30.01S
ROCKY MOUNT    CLEAR     67  67 100 CALM      30.00S
ROANOKE RAPIDS NOT AVBL
FAYETTEVILLE   CLEAR     70  67  90 SW3       29.99F
HOFFMAN        CLEAR     67  66  99 CALM      30.01S

.........WESTERN NC.........

CITY           SKY/WX    TMP DP  RH WIND       PRES   REMARKS
CHARLOTTE      PTCLDY    72  70  93 NW5       30.04S
GREENSBORO     PTCLDY    70  66  87 NE3       30.04S
HICKORY        NOT AVBL
BOONE          NOT AVBL
ASHEVILLE      NOT AVBL

.....................REST OF SOUTH CAROLINA.....................

.........EASTERN SC.........

CITY           SKY/WX    TMP DP  RH WIND       PRES   REMARKS
CHARLESTON     CLEAR     74  73  97 S3        30.01S
BEAUFORT MCAS  CLEAR     74  73  97 CALM      30.02S
HILTON HEAD    CLEAR     75  75 100 CALM      30.03R

.........CENTRAL SC.........

CITY           SKY/WX    TMP DP  RH WIND       PRES   REMARKS
COLUMBIA       PTCLDY    73  68  84 CALM      30.01R
ORANGEBURG     CLEAR     72  71  97 CALM      30.02F FOG
SUMTER SHAW    CLEAR     73  70  90 S3        30.00S

.........WESTERN SC.........

CITY           SKY/WX    TMP DP  RH WIND       PRES   REMARKS
GREENVILLE     NOT AVBL
ROCK HILL        N/A    N/A N/A N/A MISG      30.04S
ANDERSON       CLEAR     67  64  90 CALM      30.04S
CLEMSON        NOT AVBL
GREENWOOD      CLEAR     67  67 100 CALM      30.04S


...................COASTAL AND OFFSHORE REPORTS..................

................LOCAL PIERS AND NC RESERVE................


STATION/POSITION TIME  SKY/WX   TEMP    WIND        PRES    VSBY
                                AIR SEA DIR/SP/G
                 (UTC)          (F)     (DEG/KT/KT) (MB)    (MI)
JOHNY MRCER PIER 0542            77 80  260/  4/  6 1014.9S
NC RESRV MASNBRO 0445            75     270/  2     1016.0
OCEAN CREST PIER NOT AVBL
SPRINGMAID  PIER 0542                               1015.4S


................COASTAL AND OFFSHORE BUOYS................


STATION/POSITION TIME  SKY/WX   TEMP    WIND        PRES    VSBY
                                AIR SEA DIR/SP/G
                 (UTC)          (F)     (DEG/KT/KT) (MB)    (MI)
DIMNDSHOAL 41025 0550            77 75  260/  4/  6 1015.1F
WVE H/P(F/S)=  5/11 SWL H/P/D(F/S/D)=  5/ 70/11

CAPE LOOKOUT     0600            77     260/  6/  7 1015.2S
ONSLOW BAY 41036 NOT AVBL
ONSLOW BAY 41064 0508            79     260/ 12/ 17 1015.4F
ONSLOW BAY 41159 NOT AVBL
MASNBO INL 41110 0559               79                N/A
WVE H/P(F/S)=  2/11 SWL H/P/D(F/S/D)=  2/100/11

WILM HARBR 41108 0600               80                N/A
WVE H/P(F/S)=  2/11 SWL H/P/D(F/S/D)=  2/110/11

27SE WRITB 41037 0508            79 80  240/ 12/ 16 1015.6F
FRYING PAN 41013 0550            81 82  250/ 10/ 14 1015.9R
WVE H/P(F/S)=  3/12 SWL H/P/D(F/S/D)=  2/110/12

SUNST NRSH 41024 NOT AVBL
CAPRS NRSH 41029 0508            77 80  230/ 10/ 12 1016.2S
EDISTO     41004 0550            81 81  220/  8/ 10 1015.9F
WVE H/P(F/S)=  3/12 SWL H/P/D(F/S/D)=  3/ 80/12



..........OFFSHORE BUOYS BEYOND 100 NM OFFSHORE...........
.....IN A TRIANGLE---HAT TO BERMUDA TO BAHAMAS TO HAT.....


STATION/POSITION TIME  SKY/WX   TEMP    WIND        PRES    VSBY
                                AIR SEA DIR/SP/G
                 (UTC)          (F)     (DEG/KT/KT) (MB)    (MI)
150E HAT   41001 NOT AVBL
W BERMUDA  41048 0600            78 79  270/ 10/ 12 1016.0
ATLANTIC S 41049 0550            82 83  110/ 12/ 17 1016.6F
WVE H/P(F/S)=  7/10 SWL H/P/D(F/S/D)=  7/150/10

E BAHAMAS  41046 0600            83      80/ 19/ 23 1011.8
NE BAHAMAS 41047 0550            82 83  120/ 10/ 14 1015.3F
WVE H/P(F/S)=  9/11 SWL H/P/D(F/S/D)=  8/ 20/11

120E CANVRL41010 0550               85  100/  6/ 10 1015.5F
WVE H/P(F/S)=  5/12 SWL H/P/D(F/S/D)=  5/12


END




USA.gov is the U.S. government's official web portal to all federal, state and local government web resources and services.